Project,Study,Ord_Occ,Event_Num,Cast_ID,Date_Time_UTC,Date_Time_PST,Lat_Dec,Lon_Dec,Sta_ID,Line,Sta,Depth,Pressure,PrQ,Temp1,Temp1Q,Temp2,Temp2Q,TempAve,Salt1,Salt1Q,Salt1_Corr,Salt2,Salt2Q,Salt2_Corr,SaltAve_Corr,Ox1,Ox1Q,Ox1_CruiseCorr,Ox1_StaCorr,Ox2,Ox2Q,Ox2_CruiseCorr,Ox2_StaCorr,OxAve_StaCorr,Ox1uM,Ox1uM_CruiseCorr,Ox1uM_StaCorr,Ox2uM,Ox2uM_CruiseCorr,Ox2uM_StaCorr,OxAveuM_StaCorr,FluorV,FluorQ,EstChl_CruiseCorr,EstChl_StaCorr,ISUSV,ISUSQ,EstNO3_CruiseCorr,EstNO3_StaCorr,SigThetaTS1,SigThetaTS1Q,SigThetaTS2,SigThetaTS2Q,BAT,XMiss,TransQ,pH,pHQ,SPAR,SPARQ,PAR,PARQ,PoT1,PoT2,DynHt,SVA,OxSat1,OxSat2,BTL_Depth,BTL_Temp,SaltB,OxB,OxBuM,Chl-a,Phaeo,NO3,NO2,NH4,PO4,SIL
CalCOFI,2007SR,006,7,2007_006d,14-Jul-2020 07:40:57,13-Jul-2020 23:40:57,32.67972,-117.87386,093.3 035.0,093.3,035.0,2.000,2.014,,21.3456,,21.3455,,21.3456,33.6956,,33.6958,33.6955,,33.6971,33.6965,5.4780,,5.7063,5.6995,3.7277,,4.9579,4.3274,5.0135,239.054,249.0604,232.0170,162.673,419.1471,158.4566,195.2368,0.0730,,0.4336,0.9292,0.2628,,0.0000,0.228,23.4075,,23.4074,,0.8160,81.5463,,8.231,,1.9043E+00,,1.0000E-12,,21.3452,21.3451,0.0150,,107.646,73.252,2,21.324,33.69,5.71,249.19,0.696,-0.044,0.0,0.025,0.18,0.03,0.32
CalCOFI,2007SR,006,7,2007_006d,14-Jul-2020 07:41:23,13-Jul-2020 23:41:23,32.67972,-117.87386,093.3 035.0,093.3,035.0,3.000,3.021,,21.3467,,21.3464,,21.3466,33.6960,,33.6962,33.6959,,33.6975,33.6969,5.4754,,5.7035,5.6967,3.7220,,4.9443,4.3145,5.0056,238.938,248.9393,231.9034,162.425,418.8634,158.0390,194.9712,0.0681,,0.3759,0.8628,0.2623,,0.0000,0.214,23.4075,,23.4076,,0.8169,81.5289,,8.231,,1.9043E+00,,1.0000E-12,,21.3461,21.3458,0.0262,,107.596,73.141,,,,,,,,,,,,
CalCOFI,2007SR,006,7,2007_006d,14-Jul-2020 07:41:25,13-Jul-2020 23:41:25,32.67972,-117.87386,093.3 035.0,093.3,035.0,4.000,4.028,,21.3513,,21.3509,,21.3511,33.6961,,33.6963,33.6960,,33.6976,33.6970,5.4696,,5.6975,5.6907,3.7229,,4.9465,4.3166,5.0037,238.687,248.6773,231.6577,162.460,418.2495,158.0979,194.8778,0.0680,,0.3748,0.8614,0.2599,,0.0000,0.148,23.4064,,23.4064,,0.8152,81.5633,,8.231,,1.9043E+00,,1.0000E-12,,21.3506,21.3501,0.0305,,107.492,73.163,,,,,,,,,,,,
CalCOFI,2007SR,006,7,2007_006d,14-Jul-2020 07:41:27,13-Jul-2020 23:41:27,32.67972,-117.87386,093.3 035.0,093.3,035.0,5.000,5.035,,21.3527,,21.3527,,21.3527,33.6958,,33.6960,33.6958,,33.6974,33.6967,5.4795,,5.7078,5.7010,3.7229,,4.9465,4.3166,5.0088,239.120,249.1293,232.0816,162.462,419.3086,158.1013,195.0915,0.0646,,0.3348,0.8083,0.2578,,0.0000,0.090,23.4059,,23.4058,,0.8172,81.5209,,8.231,,1.9043E+00,,1.0000E-12,,21.3517,21.3517,0.0350,,107.689,73.166,,,,,,,,,,,,
CalCOFI,2007SR,006,7,2007_006d,14-Jul-2020 07:41:30,13-Jul-2020 23:41:30,32.67972,-117.87386,093.3 035.0,093.3,035.0,6.000,6.043,,21.3522,,21.3523,,21.3523,33.6959,,33.6961,33.6958,,33.6974,33.6968,5.4789,,5.7072,5.7004,3.7235,,4.9479,4.3179,5.0092,239.091,249.0990,232.0533,162.488,419.2376,158.1451,195.0992,0.0667,,0.3595,0.8417,0.2563,,0.0000,0.048,23.4061,,23.4060,,0.8180,81.5055,,8.231,,1.9043E+00,,1.0000E-12,,21.3510,21.3512,0.0395,,107.676,73.177,,,,,,,,,,,,
CalCOFI,2007SR,006,7,2007_006d,14-Jul-2020 07:41:32,13-Jul-2020 23:41:32,32.67972,-117.87386,093.3 035.0,093.3,035.0,7.000,7.050,,21.3515,,21.3514,,21.3515,33.6959,,33.6961,33.6958,,33.6974,33.6968,5.4787,,5.7070,5.7002,3.7256,,4.9529,4.3227,5.0115,239.081,249.0886,232.0435,162.581,419.2132,158.3017,195.1726,0.0656,,0.3465,0.8245,0.2547,,0.0000,0.004,23.4064,,23.4063,,0.8202,81.4616,,8.231,,1.9043E+00,,1.0000E-12,,21.3502,21.3501,0.0440,,107.670,73.218,,,,,,,,,,,,
CalCOFI,2007SR,006,7,2007_006d,14-Jul-2020 07:41:34,13-Jul-2020 23:41:34,32.67972,-117.87386,093.3 035.0,093.3,035.0,8.000,8.057,,21.3521,,21.3514,,21.3518,33.6958,,33.6960,33.6955,,33.6971,33.6966,5.4791,,5.7074,5.7006,3.7247,,4.9508,4.3206,5.0106,239.101,249.1094,232.0630,162.542,419.2621,158.2360,195.1495,0.0662,,0.3536,0.8340,0.2536,,0.0000,0.000,23.4062,,23.4062,,0.8164,81.5392,,8.231,,1.9043E+00,,1.0000E-12,,21.3505,21.3499,0.0485,,107.680,73.200,,,,,,,,,,,,
CalCOFI,2007SR,006,7,2007_006d,14-Jul-2020 07:41:35,13-Jul-2020 23:41:35,32.67972,-117.87386,093.3 035.0,093.3,035.0,9.000,9.064,,21.3491,,21.3502,,21.3497,33.6954,,33.6956,33.6951,,33.6967,33.6962,5.4835,,5.7120,5.7052,3.7250,,4.9515,4.3213,5.0133,239.291,249.3078,232.2491,162.552,419.7268,158.2529,195.2510,0.0677,,0.3712,0.8569,0.2518,,0.0000,0.000,23.4068,,23.4062,,0.8167,81.5319,,8.231,,1.9043E+00,,1.0000E-12,,21.3474,21.3484,0.0530,,107.760,73.203,,,,,,,,,,,,
CalCOFI,2007SR,006,7,2007_006d,14-Jul-2020 07:41:38,13-Jul-2020 23:41:38,32.67972,-117.87386,093.3 035.0,093.3,035.0,10.000,10.071,,21.3445,,21.3473,,21.3459,33.6945,,33.6947,33.6949,,33.6965,33.6956,5.5098,,5.7395,5.7328,3.7269,,4.9560,4.3256,5.0292,240.439,250.5062,233.3731,162.636,422.5347,158.3943,195.8837,0.0660,,0.3513,0.8308,0.2485,,0.0000,0.000,23.4074,,23.4069,,0.8232,81.4009,,8.231,,1.9043E+00,,1.0000E-12,,21.3426,21.3454,0.0575,,108.267,73.237,,,,,,,,,,,,
CalCOFI,2007SR,006,7,2007_006d,14-Jul-2020 07:41:40,13-Jul-2020 23:41:40,32.67972,-117.87386,093.3 035.0,093.3,035.0,11.000,11.078,,21.3184,,21.3201,,21.3193,33.6921,,33.6923,33.6913,,33.6929,33.6926,5.5353,,5.7661,5.7596,3.7327,,4.9699,4.3388,5.0492,241.551,251.6670,234.4619,162.888,425.2545,158.8186,196.6403,0.0660,,0.3513,0.8308,0.2479,,0.0000,0.000,23.4127,,23.4117,,0.8217,81.4297,,8.231,,1.9043E+00,,1.0000E-12,,21.3163,21.3180,0.0620,,108.716,73.313,11,20.922,33.6783,5.761,251.4,0.753,0.003,0.0,0.00,0.15,0.04,0.32
CalCOFI,2007SR,006,7,2007_006d,14-Jul-2020 07:41:41,13-Jul-2020 23:41:41,32.67972,-117.87384,093.3 035.0,093.3,035.0,12.000,12.085,,21.2603,,21.2597,,21.2600,33.6878,,33.6880,33.6869,,33.6885,33.6883,5.5321,,5.7628,5.7562,3.7365,,4.9789,4.3474,5.0518,241.408,251.5177,234.3218,163.051,424.9047,159.0931,196.7075,0.0730,,0.4336,0.9292,0.2486,,0.0000,0.000,23.4253,,23.4248,,0.8195,81.4754,,8.231,,1.9043E+00,,1.0000E-12,,21.2580,21.2574,0.0665,,108.536,73.306,,,,,,,,,,,,
CalCOFI,2007SR,006,7,2007_006d,14-Jul-2020 07:41:44,13-Jul-2020 23:41:44,32.67972,-117.87386,093.3 035.0,093.3,035.0,13.000,13.092,,21.2010,,21.1986,,21.1998,33.6859,,33.6861,33.6829,,33.6845,33.6853,5.5802,,5.8131,5.8067,3.7475,,5.0052,4.3723,5.0895,243.504,253.7057,236.3740,163.530,430.0312,159.8997,198.1369,0.0760,,0.4689,0.9640,0.2501,,0.0000,0.000,23.4400,,23.4384,,0.8235,81.3934,,8.234,,1.9043E+00,,1.0000E-12,,21.1985,21.1961,0.0710,,109.362,73.440,,,,,,,,,,,,
CalCOFI,2007SR,006,7,2007_006d,14-Jul-2020 07:41:46,13-Jul-2020 23:41:46,32.67972,-117.87386,093.3 035.0,093.3,035.0,14.000,14.099,,20.8964,,20.9040,,20.9002,33.6662,,33.6664,33.6654,,33.6670,33.6667,5.5887,,5.8219,5.8156,3.7752,,5.0713,4.4351,5.1254,243.859,254.0763,236.7216,164.730,430.8995,161.9203,199.3210,0.0762,,0.4712,0.9662,0.2524,,0.0000,0.000,23.5074,,23.5047,,0.8228,81.4087,,8.237,,1.6671E+00,,1.0000E-12,,20.8937,20.9013,0.0754,,108.916,73.583,,,,,,,,,,,,
CalCOFI,2007SR,006,7,2007_006d,14-Jul-2020 07:41:48,13-Jul-2020 23:41:48,32.67972,-117.87385,093.3 035.0,093.3,035.0,15.000,15.107,,20.6270,,20.6317,,20.6294,33.6599,,33.6601,33.6580,,33.6596,33.6599,5.6927,,5.9306,5.9247,3.8217,,5.1823,4.5406,5.2327,248.380,258.7958,241.1482,166.748,441.9572,165.3183,203.2333,0.0886,,0.6171,1.0623,0.2538,,0.0000,0.000,23.5749,,23.5722,,0.8265,81.3317,,8.238,,1.9085E+00,,1.0000E-12,,20.6241,20.6289,0.0798,,110.395,74.119,,,,,,,,,,,,
CalCOFI,2007SR,006,7,2007_006d,14-Jul-2020 07:41:50,13-Jul-2020 23:41:50,32.67972,-117.87384,093.3 035.0,093.3,035.0,16.000,16.114,,20.0929,,20.1575,,20.1252,33.6144,,33.6146,33.6115,,33.6131,33.6139,5.8009,,6.0437,6.0382,3.8648,,5.2852,4.6383,5.3383,253.075,263.6969,245.7451,168.613,453.4405,168.4586,207.1019,0.0937,,0.6772,1.0801,0.2554,,0.0000,0.023,23.6805,,23.6616,,0.8422,81.0143,,8.243,,1.9043E+00,,1.0000E-12,,20.0899,20.1545,0.0841,,111.366,74.283,,,,,,,,,,,,
CalCOFI,2007SR,006,7,2007_006d,14-Jul-2020 07:41:51,13-Jul-2020 23:41:51,32.67972,-117.87386,093.3 035.0,093.3,035.0,17.000,17.121,,18.9472,,18.9238,,18.9355,33.6057,,33.6059,33.6102,,33.6118,33.6089,5.8385,,6.0829,6.0777,3.9709,,5.5385,4.8788,5.4783,254.642,265.3327,247.2793,173.187,457.2732,176.1606,211.7200,0.1206,,0.9941,0.9637,0.2572,,0.0000,0.073,23.9693,,23.9785,,0.8590,80.6751,,8.249,,1.9043E+00,,1.0000E-12,,18.9441,18.9208,0.0882,,109.733,74.598,,,,,,,,,,,,
CalCOFI,2007SR,006,7,2007_006d,14-Jul-2020 07:41:54,13-Jul-2020 23:41:54,32.67972,-117.87386,093.3 035.0,093.3,035.0,18.000,18.128,,18.1951,,18.2985,,18.2468,33.5645,,33.5647,33.5765,,33.5781,33.5714,5.9168,,6.1648,6.1598,4.0470,,5.7202,5.0514,5.6056,258.019,268.8579,250.5858,176.484,465.5328,181.7122,216.1490,0.1040,,0.7985,1.0772,0.2600,,0.0000,0.151,24.1254,,24.1091,,0.8306,81.2496,,8.247,,1.9043E+00,,1.0000E-12,,18.1920,18.2954,0.0921,,109.619,75.127,,,,,,,,,,,,
CalCOFI,2007SR,006,7,2007_006d,14-Jul-2020 07:41:56,13-Jul-2020 23:41:56,32.67972,-117.87384,093.3 035.0,093.3,035.0,19.000,19.135,,17.4653,,17.5244,,17.4949,33.5570,,33.5572,33.5545,,33.5561,33.5567,5.8609,,6.1064,6.1012,4.1265,,5.9100,5.2316,5.6664,255.538,266.2680,248.1566,179.919,459.4647,187.4962,217.8264,0.1081,,0.8468,1.0617,0.2621,,0.0000,0.209,24.2972,,24.2811,,0.8390,81.0789,,8.246,,1.9043E+00,,1.0000E-12,,17.4622,17.5212,0.0958,,107.084,75.476,,,,,,,,,,,,
CalCOFI,2007SR,006,7,2007_006d,14-Jul-2020 07:41:58,13-Jul-2020 23:41:58,32.67972,-117.87385,093.3 035.0,093.3,035.0,20.000,20.142,,17.1201,,17.1340,,17.1271,33.5485,,33.5487,33.5470,,33.5486,33.5487,5.8385,,6.0829,6.0777,4.1914,,6.0649,5.3788,5.7283,254.545,265.2314,247.1843,182.735,457.0359,192.2380,219.7112,0.1126,,0.8998,1.0352,0.2634,,0.0000,0.245,24.3729,,24.3684,,0.8259,81.3459,,8.243,,1.9043E+00,,1.0000E-12,,17.1168,17.1307,0.0994,,105.964,76.089,,,,,,,,,,,,
CalCOFI,2007SR,006,7,2007_006d,14-Jul-2020 07:42:00,13-Jul-2020 23:42:00,32.67972,-117.87386,093.3 035.0,093.3,035.0,21.000,21.150,,16.0905,,16.1139,,16.1022,33.4913,,33.4915,33.4915,,33.4931,33.4923,5.9560,,6.2057,6.2009,4.2784,,6.2726,5.5760,5.8885,259.618,270.5271,252.1514,186.492,469.4438,198.5642,225.3578,0.1431,,1.2595,0.5950,0.2638,,0.0000,0.256,24.5667,,24.5616,,0.8326,81.2092,,8.239,,1.9043E+00,,1.0000E-12,,16.0872,16.1106,0.1029,,105.914,76.116,21,15.488,33.5236,6.199,270.57,0.574,0.098,0.0,0.00,0.12,0.21,0.57
CalCOFI,2007SR,006,7,2007_006d,14-Jul-2020 07:42:02,13-Jul-2020 23:42:02,32.67972,-117.87385,093.3 035.0,093.3,035.0,22.000,22.157,,15.4967,,15.5152,,15.5060,33.5023,,33.5025,33.5028,,33.5044,33.5035,6.0171,,6.2696,6.2650,4.3300,,6.3958,5.6930,5.9790,262.246,273.2705,254.7244,188.717,475.8715,202.3108,228.5176,0.1305,,1.1109,0.8319,0.2644,,0.0000,0.273,24.7092,,24.7055,,0.8060,81.7509,,8.229,,1.9043E+00,,1.0000E-12,,15.4933,15.5118,0.1062,,105.772,76.143,,,,,,,,,,,,
CalCOFI,2007SR,006,7,2007_006d,14-Jul-2020 07:42:04,13-Jul-2020 23:42:04,32.67972,-117.87384,093.3 035.0,093.3,035.0,23.000,23.164,,15.4154,,15.4187,,15.4171,33.5036,,33.5038,33.5076,,33.5092,33.5065,5.9022,,6.1495,6.1445,4.3495,,6.4424,5.7372,5.9409,257.232,268.0364,249.8152,189.559,463.6079,203.7286,226.7719,0.1270,,1.0696,0.8839,0.2644,,0.0000,0.273,24.7282,,24.7306,,0.8042,81.7872,,8.221,,1.9043E+00,,1.0000E-12,,15.4119,15.4152,0.1094,,103.586,76.341,,,,,,,,,,,,
CalCOFI,2007SR,006,7,2007_006d,14-Jul-2020 07:42:06,13-Jul-2020 23:42:06,32.67972,-117.87386,093.3 035.0,093.3,035.0,24.000,24.171,,15.2041,,15.2054,,15.2048,33.4854,,33.4856,33.5034,,33.5050,33.4953,5.8277,,6.0717,6.0663,4.3824,,6.5209,5.8118,5.9391,253.978,264.6395,246.6292,190.989,455.6491,206.1365,226.3829,0.1618,,1.4804,0.1005,0.2638,,0.0000,0.256,24.7604,,24.7741,,0.8199,81.4684,,8.212,,1.9043E+00,,1.0000E-12,,15.2005,15.2018,0.1127,,101.839,76.592,,,,,,,,,,,,
CalCOFI,2007SR,006,7,2007_006d,14-Jul-2020 07:42:08,13-Jul-2020 23:42:08,32.67972,-117.87386,093.3 035.0,093.3,035.0,25.000,25.178,,14.6144,,14.6175,,14.6160,33.4732,,33.4734,33.4760,,33.4776,33.4755,5.7814,,6.0233,6.0178,4.4355,,6.6477,5.9322,5.9750,251.930,262.5016,244.6240,193.281,450.6400,209.9958,227.3099,0.2374,,2.3754,0.0000,0.2637,,0.0000,0.253,24.8789,,24.8804,,0.8599,80.6564,,8.204,,1.9043E+00,,1.0000E-12,,14.6107,14.6139,0.1158,,99.839,76.604,,,,,,,,,,,,
CalCOFI,2007SR,006,7,2007_006d,14-Jul-2020 07:42:10,13-Jul-2020 23:42:10,32.67972,-117.87386,093.3 035.0,093.3,035.0,26.000,26.186,,14.4939,,14.5105,,14.5022,33.4756,,33.4758,33.4758,,33.4774,33.4766,5.6809,,5.9183,5.9123,4.4467,,6.6744,5.9576,5.9350,247.546,257.9252,240.3316,193.762,439.9174,210.8058,225.5687,0.3849,,4.1315,0.0000,0.2667,,0.0000,0.336,24.9063,,24.9029,,0.9253,79.3510,,8.196,,1.9043E+00,,1.0000E-12,,14.4901,14.5067,0.1189,,97.870,76.631,,,,,,,,,,,,
CalCOFI,2007SR,006,7,2007_006d,14-Jul-2020 07:42:12,13-Jul-2020 23:42:12,32.67972,-117.87385,093.3 035.0,093.3,035.0,27.000,27.193,,14.2459,,14.2331,,14.2395,33.4877,,33.4879,33.4899,,33.4915,33.4897,5.4056,,5.6306,5.6235,4.4848,,6.7654,6.0440,5.8338,235.532,245.3838,228.5686,195.410,410.5328,213.5807,221.0747,0.6313,,7.0947,0.0000,0.2762,,0.0000,0.599,24.9680,,24.9724,,0.9896,78.0826,,8.183,,1.9043E+00,,1.0000E-12,,14.2420,14.2292,0.1219,,92.670,76.863,,,,,,,,,,,,
CalCOFI,2007SR,006,7,2007_006d,14-Jul-2020 07:42:14,13-Jul-2020 23:42:14,32.67972,-117.87384,093.3 035.0,093.3,035.0,28.000,28.200,,14.0616,,14.0636,,14.0626,33.4957,,33.4959,33.4963,,33.4979,33.4969,4.9707,,5.1762,5.1673,4.5111,,6.8281,6.1036,5.6355,216.575,225.5945,210.0077,196.551,364.1667,215.5020,212.7549,0.6162,,6.9121,0.0000,0.2928,,0.0000,1.059,25.0127,,25.0128,,0.9936,78.0053,,8.171,,1.9043E+00,,1.0000E-12,,14.0576,14.0596,0.1249,,84.900,77.053,,,,,,,,,,,,
CalCOFI,2007SR,006,7,2007_006d,14-Jul-2020 07:42:16,13-Jul-2020 23:42:16,32.67972,-117.87385,093.3 035.0,093.3,035.0,29.000,29.207,,13.4042,,13.3675,,13.3859,33.4838,,33.4840,33.4830,,33.4846,33.4843,4.8900,,5.0919,5.0826,4.5628,,6.9516,6.2208,5.6517,213.031,221.8950,206.5378,198.778,355.4986,219.2520,212.8949,0.4225,,4.5813,0.0000,0.3160,,0.0000,1.702,25.1380,,25.1448,,0.8819,80.2174,,8.146,,1.9043E+00,,1.0000E-12,,13.4002,13.3635,0.1278,,82.406,76.830,,,,,,,,,,,,
CalCOFI,2007SR,006,7,2007_006d,14-Jul-2020 07:42:18,13-Jul-2020 23:42:18,32.67972,-117.87386,093.3 035.0,093.3,035.0,30.000,30.214,,13.1031,,13.1481,,13.1256,33.5074,,33.5076,33.4926,,33.4942,33.5009,4.7375,,4.9325,4.9226,4.5637,,6.9537,6.2228,5.5727,206.371,214.9426,200.0169,198.806,339.2092,219.2991,209.6580,0.3633,,3.8735,0.0000,0.3597,,0.0000,2.912,25.2170,,25.1965,,0.8352,81.1562,,8.117,,1.9043E+00,,1.0000E-12,,13.0990,13.1440,0.1306,,79.353,76.505,30,12.675,,,151.67,,,,,,,
CalCOFI,2007SR,006,7,2007_006d,14-Jul-2020 07:42:20,13-Jul-2020 23:42:20,32.67972,-117.87385,093.3 035.0,093.3,035.0,31.000,31.222,,13.0082,,12.9997,,13.0040,33.5158,,33.5160,33.5197,,33.5213,33.5187,4.5283,,4.7139,4.7031,4.5658,,6.9587,6.2276,5.4654,197.254,205.4254,191.0904,198.888,316.9103,219.4372,205.2638,0.3046,,3.1738,0.0000,0.4031,,1.0795,4.114,25.2425,,25.2471,,0.8347,81.1653,,8.100,,1.9043E+00,,1.0000E-12,,13.0040,12.9955,0.1334,,75.704,76.321,,,,,,,,,,,,
CalCOFI,2007SR,006,7,2007_006d,14-Jul-2020 07:42:22,13-Jul-2020 23:42:22,32.67972,-117.87384,093.3 035.0,093.3,035.0,32.000,32.229,,12.7613,,12.7310,,12.7462,33.5185,,33.5187,33.5182,,33.5198,33.5193,4.4811,,4.6646,4.6536,4.5682,,6.9645,6.2330,5.4433,195.189,203.2697,189.0686,198.983,311.8596,219.5972,204.3329,0.2108,,2.0601,0.0000,0.4420,,2.1718,5.192,25.2931,,25.2987,,0.7872,82.1376,,8.084,,1.9043E+00,,1.0000E-12,,12.7570,12.7267,0.1361,,74.535,75.936,,,,,,,,,,,,
CalCOFI,2007SR,006,7,2007_006d,14-Jul-2020 07:42:24,13-Jul-2020 23:42:24,32.67972,-117.87384,093.3 035.0,093.3,035.0,33.000,33.236,,12.4614,,12.4426,,12.4520,33.5283,,33.5285,33.5313,,33.5329,33.5307,4.4742,,4.6574,4.6464,4.5666,,6.9606,6.2294,5.4379,194.876,202.9430,188.7621,198.899,311.0940,219.4557,204.1089,0.1424,,1.2513,0.6102,0.4871,,3.4382,6.441,25.3590,,25.3650,,0.7424,83.0617,,8.067,,1.9043E+00,,1.0000E-12,,12.4570,12.4382,0.1388,,73.963,75.462,,,,,,,,,,,,
CalCOFI,2007SR,006,7,2007_006d,14-Jul-2020 07:42:26,13-Jul-2020 23:42:26,32.67972,-117.87386,093.3 035.0,093.3,035.0,34.000,34.243,,12.2725,,12.2459,,12.2592,33.5274,,33.5276,33.5289,,33.5305,33.5291,4.4803,,4.6638,4.6528,4.5405,,6.8983,6.1702,5.4115,195.134,203.2123,189.0147,197.756,311.7251,217.5311,203.2729,0.1062,,0.8244,1.0699,0.5365,,4.8253,7.810,25.3946,,25.4008,,0.7074,83.7902,,8.053,,1.9043E+00,,1.0000E-12,,12.2680,12.2414,0.1414,,73.772,74.723,,,,,,,,,,,,
CalCOFI,2007SR,006,7,2007_006d,14-Jul-2020 07:42:28,13-Jul-2020 23:42:28,32.67972,-117.87386,093.3 035.0,093.3,035.0,35.000,35.251,,12.2226,,12.2193,,12.2210,33.5297,,33.5299,33.5335,,33.5351,33.5325,4.4843,,4.6679,4.6570,4.4975,,6.7957,6.0727,5.3649,195.306,203.3918,189.1831,195.880,312.1458,214.3722,201.7777,0.1096,,0.8644,1.0540,0.5732,,5.8558,8.826,25.4060,,25.4095,,0.7062,83.8154,,8.042,,1.9043E+00,,1.0000E-12,,12.2181,12.2147,0.1440,,73.762,73.975,,,,,,,,,,,,
CalCOFI,2007SR,006,7,2007_006d,14-Jul-2020 07:42:30,13-Jul-2020 23:42:30,32.67972,-117.87384,093.3 035.0,093.3,035.0,36.000,36.258,,12.2016,,12.1920,,12.1968,33.5302,,33.5304,33.5337,,33.5353,33.5329,4.4831,,4.6667,4.6557,4.4653,,6.7188,5.9997,5.3277,195.255,203.3386,189.1332,194.480,312.0210,212.0148,200.5740,0.1260,,1.0578,0.8977,0.5990,,6.5803,9.541,25.4103,,25.4149,,0.7049,83.8422,,8.035,,1.9043E+00,,1.0000E-12,,12.1969,12.1873,0.1466,,73.711,73.405,,,,,,,,,,,,
CalCOFI,2007SR,006,7,2007_006d,14-Jul-2020 07:42:32,13-Jul-2020 23:42:32,32.67972,-117.87384,093.3 035.0,093.3,035.0,37.000,37.265,,12.1922,,12.1864,,12.1893,33.5314,,33.5316,33.5353,,33.5369,33.5343,4.4775,,4.6608,4.6498,4.4309,,6.6367,5.9218,5.2858,195.009,203.0818,188.8923,192.978,311.4193,209.4856,199.1890,0.1251,,1.0472,0.9097,0.6209,,7.1952,10.147,25.4131,,25.4172,,0.6980,83.9880,,8.029,,1.9043E+00,,1.0000E-12,,12.1874,12.1816,0.1492,,73.604,72.831,,,,,,,,,,,,
CalCOFI,2007SR,006,7,2007_006d,14-Jul-2020 07:42:34,13-Jul-2020 23:42:34,32.67972,-117.87386,093.3 035.0,093.3,035.0,38.000,38.272,,12.1931,,12.1935,,12.1933,33.5324,,33.5326,33.5357,,33.5373,33.5350,4.4631,,4.6458,4.6347,4.3832,,6.5228,5.8136,5.2242,194.382,202.4273,188.2784,190.904,309.8858,205.9933,197.1359,0.1039,,0.7973,1.0775,0.6396,,7.7203,10.665,25.4138,,25.4162,,0.6980,83.9872,,8.024,,1.9043E+00,,1.0000E-12,,12.1881,12.1885,0.1517,,73.369,72.059,,,,,,,,,,,,
CalCOFI,2007SR,006,7,2007_006d,14-Jul-2020 07:42:36,13-Jul-2020 23:42:36,32.67972,-117.87386,093.3 035.0,093.3,035.0,39.000,39.280,,12.1848,,12.1814,,12.1831,33.5331,,33.5333,33.5365,,33.5381,33.5357,4.4383,,4.6199,4.6087,4.3522,,6.4488,5.7433,5.1760,193.301,201.2988,187.2200,189.552,307.2418,203.7168,195.4684,0.1023,,0.7784,1.0813,0.6460,,7.9001,10.843,25.4159,,25.4191,,0.6972,84.0035,,8.020,,1.9043E+00,,1.0000E-12,,12.1797,12.1764,0.1543,,72.949,71.531,,,,,,,,,,,,
CalCOFI,2007SR,006,7,2007_006d,14-Jul-2020 07:42:38,13-Jul-2020 23:42:38,32.67972,-117.87386,093.3 035.0,093.3,035.0,40.000,40.287,,12.1599,,12.1585,,12.1592,33.5330,,33.5332,33.5353,,33.5369,33.5351,4.4218,,4.6026,4.5914,4.3275,,6.3898,5.6873,5.1394,192.580,200.5462,186.5141,188.476,305.4784,201.9050,194.2096,0.0943,,0.6842,1.0813,0.6497,,8.0039,10.945,25.4205,,25.4226,,0.6974,83.9991,,8.016,,1.9043E+00,,1.0000E-12,,12.1547,12.1533,0.1569,,72.639,71.090,,,,,,,,,,,,
CalCOFI,2007SR,006,7,2007_006d,14-Jul-2020 07:42:40,13-Jul-2020 23:42:40,32.67972,-117.87385,093.3 035.0,093.3,035.0,41.000,41.294,,12.0984,,12.0945,,12.0965,33.5327,,33.5329,33.5354,,33.5370,33.5350,4.4061,,4.5862,4.5749,4.3091,,6.3459,5.6456,5.1103,191.895,199.8311,185.8434,187.671,303.8029,200.5495,193.1965,0.0944,,0.6854,1.0815,0.6532,,8.1022,11.042,25.4320,,25.4349,,0.6931,84.0907,,8.013,,1.9043E+00,,1.0000E-12,,12.0931,12.0892,0.1595,,72.288,70.693,41,11.973,,,135.49,1.253,0.437,10.51,0.031,0.11,0.95,9
CalCOFI,2007SR,006,7,2007_006d,14-Jul-2020 07:42:42,13-Jul-2020 23:42:42,32.67972,-117.87385,093.3 035.0,093.3,035.0,42.000,42.301,,12.0426,,12.0427,,12.0427,33.5319,,33.5321,33.5343,,33.5359,33.5340,4.3926,,4.5721,4.5608,4.2877,,6.2948,5.5971,5.0790,191.307,199.2173,185.2677,186.737,302.3648,198.9767,192.1222,0.0978,,0.7254,1.0852,0.6577,,8.2286,11.167,25.4419,,25.4438,,0.6890,84.1764,,8.010,,1.9043E+00,,1.0000E-12,,12.0372,12.0373,0.1620,,71.983,70.265,,,,,,,,,,,,
CalCOFI,2007SR,006,7,2007_006d,14-Jul-2020 07:42:44,13-Jul-2020 23:42:44,32.67972,-117.87386,093.3 035.0,093.3,035.0,43.000,43.309,,11.9474,,11.9525,,11.9500,33.5330,,33.5332,33.5352,,33.5368,33.5350,4.3532,,4.5310,4.5194,4.2565,,6.2203,5.5263,5.0229,189.587,197.4218,183.5836,185.373,298.1579,196.6800,190.1318,0.0832,,0.5536,1.0297,0.6656,,8.4504,11.385,25.4607,,25.4615,,0.6799,84.3687,,8.006,,1.9043E+00,,1.0000E-12,,11.9419,11.9470,0.1646,,71.195,69.621,,,,,,,,,,,,
CalCOFI,2007SR,006,7,2007_006d,14-Jul-2020 07:42:46,13-Jul-2020 23:42:46,32.67972,-117.87386,093.3 035.0,093.3,035.0,44.000,44.316,,11.8975,,11.8974,,11.8975,33.5345,,33.5347,33.5373,,33.5389,33.5368,4.2772,,4.4515,4.4397,4.2348,,6.1685,5.4771,4.9584,186.273,193.9623,180.3389,184.428,290.0523,195.0887,187.7138,0.0802,,0.5183,1.0054,0.6730,,8.6582,11.590,25.4713,,25.4735,,0.6738,84.4972,,8.003,,1.9043E+00,,1.0000E-12,,11.8919,11.8917,0.1671,,69.879,69.188,,,,,,,,,,,,
CalCOFI,2007SR,006,7,2007_006d,14-Jul-2020 07:42:48,13-Jul-2020 23:42:48,32.67972,-117.87386,093.3 035.0,093.3,035.0,45.000,45.323,,11.8493,,11.8477,,11.8485,33.5391,,33.5393,33.5406,,33.5422,33.5408,4.2363,,4.4088,4.3968,4.2233,,6.1411,5.4511,4.9240,184.493,192.1041,178.5960,183.925,285.6987,194.2417,186.4189,0.0735,,0.4394,0.9353,0.6803,,8.8632,11.793,25.4839,,25.4854,,0.6751,84.4692,,7.999,,1.9043E+00,,1.0000E-12,,11.8435,11.8419,0.1696,,69.144,68.929,,,,,,,,,,,,
CalCOFI,2007SR,006,7,2007_006d,14-Jul-2020 07:42:50,13-Jul-2020 23:42:50,32.67972,-117.87386,093.3 035.0,093.3,035.0,46.000,46.331,,11.7377,,11.7451,,11.7414,33.5502,,33.5504,33.5519,,33.5535,33.5520,4.1496,,4.3182,4.3058,4.2189,,6.1306,5.4411,4.8735,180.710,188.1551,174.8921,183.727,276.4460,193.9083,184.4002,0.0724,,0.4265,0.9217,0.6942,,9.2535,12.178,25.5133,,25.5133,,0.6715,84.5451,,7.993,,1.9043E+00,,1.0000E-12,,11.7319,11.7393,0.1721,,67.574,68.713,,,,,,,,,,,,
CalCOFI,2007SR,006,7,2007_006d,14-Jul-2020 07:42:52,13-Jul-2020 23:42:52,32.67972,-117.87386,093.3 035.0,093.3,035.0,47.000,47.338,,11.6368,,11.6579,,11.6474,33.5574,,33.5576,33.5572,,33.5588,33.5582,3.8510,,4.0062,3.9926,4.2128,,6.1160,5.4273,4.7100,167.704,174.5781,162.1578,183.461,244.6352,193.4604,177.8091,0.0660,,0.3513,0.8308,0.7194,,9.9611,12.876,25.5376,,25.5336,,0.6616,84.7544,,7.985,,1.9043E+00,,1.0000E-12,,11.6309,11.6520,0.1746,,62.581,68.491,,,,,,,,,,,,
CalCOFI,2007SR,006,7,2007_006d,14-Jul-2020 07:42:54,13-Jul-2020 23:42:54,32.67972,-117.87386,093.3 035.0,093.3,035.0,48.000,48.345,,11.3181,,11.3226,,11.3204,33.5989,,33.5991,33.5979,,33.5995,33.5993,3.7916,,3.9441,3.9303,4.2214,,6.1365,5.4468,4.6886,165.103,171.8629,159.6112,183.815,238.2735,194.0565,176.8339,0.0488,,0.1491,0.4875,0.7443,,10.6603,13.565,25.6283,,25.6267,,0.6535,84.9269,,7.973,,1.9043E+00,,1.0000E-12,,11.3122,11.3167,0.1770,,61.218,68.161,,,,,,,,,,,,
CalCOFI,2007SR,006,7,2007_006d,14-Jul-2020 07:42:56,13-Jul-2020 23:42:56,32.67974,-117.87386,093.3 035.0,093.3,035.0,49.000,49.352,,11.1935,,11.1961,,11.1948,33.6190,,33.6192,33.6216,,33.6232,33.6212,3.7589,,3.9100,3.8960,4.2028,,6.0921,5.4046,4.6503,163.674,170.3712,158.2120,183.000,234.7784,192.6842,175.4481,0.0470,,0.1280,0.4433,0.7699,,11.3791,14.275,25.6665,,25.6681,,0.6526,84.9471,,7.959,,1.9043E+00,,1.0000E-12,,11.1875,11.1901,0.1794,,60.537,67.690,,,,,,,,,,,,
CalCOFI,2007SR,006,7,2007_006d,14-Jul-2020 07:42:58,13-Jul-2020 23:42:58,32.67972,-117.87386,093.3 035.0,093.3,035.0,50.000,50.360,,11.1330,,11.1357,,11.1344,33.6279,,33.6281,33.6304,,33.6320,33.6301,3.7319,,3.8818,3.8676,4.1777,,6.0322,5.3477,4.6077,162.493,169.1383,157.0557,181.906,231.8898,190.8421,173.9489,0.0453,,0.1080,0.4000,0.7964,,12.1233,15.009,25.6844,,25.6858,,0.6499,85.0041,,7.948,,1.9043E+00,,1.0000E-12,,11.1269,11.1296,0.1817,,60.027,67.203,,,,,,,,,,,,